Other Surface Observations
Issued by NWS

Home | Current Version | Previous Version | Text Only | Print | Product List | Glossary On
Versions: 1 2 3 4 5 6 7 8 9 10 11 12 13 14 15 16 17 18 19 20 21 22 23 24 25 26 27 28 29 30 31 32 33 34 35 36 37 38 39 40 41 42 43 44 45 46 47 48 49 50
000
SXUS52 KTAE 020118
OSOTAE
OSOTAE
North Florida/South Alabama/Southwest Georgia Weather Roundup
National Weather Service Tallahassee Florida
900 PM EDT WED OCT 01 2014

Note: "fair" indicates few or no clouds below 12,000 feet with no
significant weather and/or obstructions to visibility.

!FLZ017-115-028-034-025-020200
...North Florida...

CITY           SKY/WX    TMP DP  RH WIND       PRES   REMARKS
TALLAHASSEE    MOCLDY    75  70  84 CALM      29.97R
APALACHICOLA   PTCLDY    77  70  79 CALM      29.96R
PERRY          CLEAR     64  61  88 CALM      29.98R
CROSS CITY       N/A     76  71  85 CALM      29.97R
JACKSONVILLE   MOCLDY    73  71  93 NE3       29.98R
$$

!FLZ112-006-005-002-011-020200
...Florida Panhandle...

CITY           SKY/WX    TMP DP  RH WIND       PRES   REMARKS
MARIANNA       MOCLDY    74  72  93 CALM      29.96R
BONIFAY        FAIR      72  71  97 CALM      29.98R
PANAMA CITY NW FAIR      77  71  82 CALM      29.96R
TYNDALL AFB    MOCLDY    75  74  97 S6        29.97R
TYND DRONE APT FAIR      75  73  93 MISG      29.96R
DE FUNIAK SPR  FAIR      73  70  89 CALM      29.97R
EGLIN AFB      MOCLDY    77  71  81 CALM      29.96R
DESTIN         MOCLDY    78  70  76 CALM      29.95S
HURLBURT       PTCLDY    78  67  70 S5        29.94R
CRESTVIEW      PTCLDY    74  69  85 CALM      29.97S
PENSACOLA      PTCLDY    75  70  84 CALM      29.95R
$$

!ALZ063-066-020200
...South Alabama...

CITY           SKY/WX    TMP DP  RH WIND       PRES   REMARKS
DOTHAN         MOCLDY    71  67  87 CALM      30.01R
OZARK CAIRNS   MOCLDY    75  66  72 E3        29.97R
FT RUCKER HELI PTCLDY    71  68  90 CALM      29.96R
RUCKER HELI 3  FAIR      71  68  92 VRB1      30.00R
RUCKER HELI 2  FAIR      73  69  87 CALM      29.97R
FLORALA APT    PTCLDY    73  66  78 CALM      29.99R
ANDALUSIA      PTCLDY    76  66  71 CALM      29.97R
TROY           CLEAR     72  66  81 CALM      29.98R
EUFALA         FAIR      68  65  90 CALM      29.98R
MOBILE         PTCLDY    75  73  93 SE5       29.96R
$$

!GAZ120>161-020200
...Southwest and South Central Georgia...

CITY           SKY/WX    TMP DP  RH WIND       PRES   REMARKS
THOMASVILLE    FAIR      72  72 100 CALM      29.99R
BAINBRIDGE     MOCLDY    77  72  83 CALM      29.98R
MOODY AFB      CLEAR     71  68  90 NE1       29.98R
VALDOSTA       CLEAR     71  68  90 CALM      29.98R
MOULTRIE       CLEAR     72  70  94 CALM      30.00R
BLAKELY        PTCLDY    72  70  94 CALM        N/A
ALBANY         PTCLDY    72  68  87 CALM      30.00R
TIFTON         FAIR      69  67  94 CALM      29.99R
FITZGERALD     FAIR      70  68  91 CALM      30.02R
CORDELE        FAIR      72  69  90 CALM      30.00R
AMERICUS       FAIR      68  68 100 CALM      30.01R
HOMERVILLE     FAIR      73  72  94 CALM      30.00R
$$

!GMZ750-755-770-775-020200
...Coastal and Buoy Obs...

STATION/POSITION TIME  TEMP    WIND        PRES    VSBY  WAVE
                       AIR SEA DIR/SP/G                  HT/PER
                 (UTC) (F)     (DEG/KT/KT) (MB)    (MI)  (FT/S)
KEATON BEACH     0100   76      50/  3/  4 1015.1R
CEDAR KEY        0100   79      40/  7/  9 1015.1R
C TOWER          0100   79     100/  4/  5 1014.8R
APALACHICOLA BUO 0100   80 83   50/  8/ 10 1014.5R         1/ 4
PANAMA CITY BUOY 0049   81 84  100/  8/ 10 1014.1R         1/ 5
MOBILE BUOY      0009   81 83  120/ 10/ 12 1014.0R         1/ 5
ORANGE BCH AL BU 0100   80 82  140/ 12/ 12 1013.9R         1/ 3
$$



USA.gov is the U.S. government's official web portal to all federal, state and local government web resources and services.